Regional Weather Roundup
Issued by NWS

Home | Current Version | Previous Version | Text Only | Print | Product List | Glossary Off
Versions: 1 2 3 4 5 6 7 8 9 10 11 12 13 14 15 16 17 18 19 20 21 22 23 24 25 26 27 28 29 30 31 32 33 34 35 36 37 38 39 40 41 42 43 44 45 46 47 48 49 50

386
ASUS43 KLOT 222307
RWRIL

ILLINOIS REGIONAL WEATHER ROUNDUP
NATIONAL WEATHER SERVICE CHICAGO/ROMEOVILLE IL
600 PM CDT WED MAR 22 2017

NOTE: "FAIR" INDICATES FEW OR NO CLOUDS BELOW 12,000 FEET WITH NO
SIGNIFICANT WEATHER AND/OR OBSTRUCTIONS TO VISIBILITY.

* THESE STATIONS ARE NOT UNDER NWS QUALITY CONTROL. THEY ALSO MAY NOT
  REPORT WEATHER SUCH AS PRECIPITATION OR FOG.

ILZ001-002-007-009-015-016-024-230000-
NORTHWEST ILLINOIS

CITY           SKY/WX    TMP DP  RH WIND       PRES   REMARKS
MOLINE         PTSUNNY   42  20  41 SE9       30.44S
STERLING*      SUNNY     40  21  46 E10       30.46
SAVANNA*       SUNNY     41  16  36 SE12      30.45S
$$

ILZ003-004-008-010-011-017-018-230000-
NORTH CENTRAL ILLINOIS

CITY           SKY/WX    TMP DP  RH WIND       PRES   REMARKS
ROCKFORD       PTSUNNY   41  17  38 E9        30.49S
FREEPORT*      MOSUNNY   40  15  37 SE8       30.48S
ROCHELLE*      MOSUNNY   40  19  42 E8        30.47S
DE KALB*       MOSUNNY   38  17  43 E12       30.47F WCI  30
PERU*          MOSUNNY   40  20  43 SE12      30.46S
$$

ILZ005-006-012>014-019>023-230000-
NORTHEAST ILLINOIS

CITY           SKY/WX    TMP DP  RH WIND       PRES   REMARKS
CHICAGO-OHARE  PTSUNNY   34  16  47 NE9       30.51S WCI  27
CHICAGO-MIDWAY CLOUDY    32  17  54 NE8       30.52S WCI  25
AURORA         SUNNY     38  17  42 E12       30.48F WCI  30
LANSING*       MOSUNNY   32  22  66 NE9       30.51S WCI  24
JOLIET*        SUNNY     37  18  45 NE8       30.49F WCI  31
WAUKEGAN       CLOUDY    28  19  69 NE7       30.52F WCI  21
DUPAGE AIRPORT SUNNY     34  17  50 NE12      30.49S WCI  25
KANKAKEE*      SUNNY     40  18  40 CALM      30.48S
WHEELING       CLOUDY    30  18  60 NE8       30.54S WCI  22
MORRIS*        SUNNY     38  17  41 E8        30.47F WCI  32
ROMEOVILLE*    SUNNY     34  19  54 E8        30.50S WCI  27
NORTHERLY ISL    N/A     30  19  63 NE8         N/A  WCI  23
$$

LMZ740>746-230000-
SOUTHERN LAKE MICHIGAN

STATION/POSITION SKY/WX   TEMP    WIND        PRES    VSBY  WAVE
                          AIR SEA DIR/SP/G                  HT/PER
                          (F)     (DEG/KT/KT) (MB)    (MI)  (FT/S)
HARRISON CRIB              29      20/ 10/ 12   N/A
BURNHAM HARBOR             30      30/  7/  9   N/A
CALUMET HARBOR             29      20/  8/ 10 1032.7F
BURNS HARBOR               30      40/ 11/ 13 1033.5F
MICHIGAN CITY              29      20/ 12/ 13   N/A
$$

ILZ025>027-034>036-040-047-049-050-058-095>099-230000-
WEST-CENTRAL ILLINOIS

CITY           SKY/WX    TMP DP  RH WIND       PRES   REMARKS
QUINCY         CLOUDY    46  10  23 E14       30.37F
GALESBURG*     CLOUDY    41  21  45 E9        30.42F
MACOMB*        PTSUNNY   45  15  30 E13G20    30.44S
JACKSONVILLE*  MOSUNNY   46  11  24 E14       30.40S
PITTSFIELD*    CLOUDY    47  11  23 E8G17     30.40R
$$

ILZ028>032-037-038-041>044-048-051>054-059>061-230000-
CENTRAL ILLINOIS

CITY           SKY/WX    TMP DP  RH WIND       PRES   REMARKS
PONTIAC        CLOUDY    40  21  46 E13       30.47S
BLOOMINGTON    MOSUNNY   39  19  44 E14       30.45S WCI  31
DECATUR        MOSUNNY   43  13  29 E15       30.42S
PEORIA         MOSUNNY   41  18  39 E10       30.44F
LACON*         MOSUNNY   40  21  45 E6        30.46S
LINCOLN*       MOSUNNY   43  19  37 E12       30.44S
SPRINGFIELD    MOSUNNY   45  13  27 E13       30.42F
TAYLORVILLE    SUNNY     44  11  25 E12G17    30.40F
$$

ILZ033-039-045-046-055>057-062-063-230000-
EAST-CENTRAL ILLINOIS

CITY           SKY/WX    TMP DP  RH WIND       PRES   REMARKS
CHAMPAIGN      SUNNY     41  18  39 E16       30.43F
RANTOUL*       SUNNY     42  23  47 E14       30.44F
MATTOON        SUNNY     43  17  35 NE15      30.41S
PARIS*         SUNNY     41  22  48 E15       30.44F
$$

ILZ079-100>102-230000-
SOUTHWEST ILLINOIS

CITY           SKY/WX    TMP DP  RH WIND       PRES   REMARKS
ALTON          PTSUNNY   48  16  27 E10       30.38F
BELLEVILLE     PTSUNNY   50  17  26 E8        30.37S
CAHOKIA*       SUNNY     50  17  27 E12       30.37F
SPARTA*        SUNNY     50  21  32 NE8G16    30.37S
$$

ILZ064>066-069>071-074>076-080>082-084>086-088>090-092>094-230000-
SOUTH-CENTRAL ILLINOIS

CITY           SKY/WX    TMP DP  RH WIND       PRES   REMARKS
CARBONDALE     SUNNY     51  23  33 NE10      30.37R
CAIRO*         SUNNY     55  26  32 NE10      30.34R
EFFINGHAM*     MOSUNNY  N/A N/A N/A NE6       30.43R
MARION         MOSUNNY   54  19  26 NE14      30.37S
MT. VERNON     MOSUNNY   48  20  32 NE12G17   30.38S
CENTRALIA*     PTSUNNY   48  20  33 NE8       30.38S
SALEM*         SUNNY     48  15  26 E7        30.38F
METROPOLIS*    SUNNY     54  20  27 E8        30.35R
$$

ILZ067-068-072-073-078-083-087-091-230000-
SOUTHEAST ILLINOIS

CITY           SKY/WX    TMP DP  RH WIND       PRES   REMARKS
LAWRENCEVILLE  SUNNY     48  15  26 NE14      30.41S
FLORA*         SUNNY     50  19  30 NE10      30.40S THUNDER
FAIRFIELD*     SUNNY     47  20  33 NE6       30.38S
HARRISBURG*    SUNNY     50  25  36 E9        30.37S
ROBINSON*      SUNNY     46  16  30 E12       30.42S
CARMI*         SUNNY     50  16  26 NE12G17   30.37F
$$

ABBREVIATIONS USED IN REMARKS
   TC - TEMPERATURE IN CELSIUS
  WCI - WIND CHILL INDEX
   HX - HEAT INDEX
  VSB - VISIBILITY
$$





USA.gov is the U.S. government's official web portal to all federal, state and local government web resources and services.